N0OQA Weather Reports


Display with metric or nautical units.
time (UTC)temp
F
wind
direction
speed
MPH
gust
MPH
rain 1hr
in
rain 24hr
in
rain mn
in
humidity
%
barometer
mb
20260831210351 87 319 5.0 7.0 0.00 0.00 0.00 33 1013.7
20260831205850 86 319 8.0 13.0 0.00 0.00 0.00 34 1013.3
20260831204349 86 322 7.0 11.0 0.00 0.00 0.00 41 1013.8
20260831202348 86 359 6.0 7.0 0.00 0.00 0.00 41 1013.8
20260831201348 86 332 7.0 9.0 0.00 0.00 0.00 40 1013.8
20260831195346 86 311 9.0 14.0 0.00 0.00 0.00 39 1013.4
20260831194346 86 305 10.0 16.0 0.00 0.00 0.00 39 1013.3
20260831191843 86 21 5.0 8.0 0.00 0.00 0.00 40 1013.6
20260831191343 86 309 8.0 11.0 0.00 0.00 0.00 42 1013.6
20260831190841 86 349 9.0 11.0 0.00 0.00 0.00 41 1013.6
20260831190341 85 322 6.0 10.0 0.00 0.00 0.00 46 1013.6
20260831183836 85 307 8.0 12.0 0.00 0.00 0.00 46 1013.3
20260831162536 77 315 6.0 7.0 0.00 0.00 0.00 82 1013.8
20260831161035 76 314 8.0 11.0 0.00 0.00 0.00 87 1013.7
20260831152533 74 323 6.0 7.0 0.00 0.00 0.00 94 1013.3
20260831152032 74 288 8.0 12.0 0.00 0.00 0.00 95 1013.2
20260831151531 74 335 7.0 11.0 0.00 0.00 0.00 96 1013.0
20260831150530 74 342 8.0 12.0 0.00 0.00 0.00 96 1012.9
20260831150030 74 290 8.0 16.0 0.00 0.00 0.00 97 1012.8
20260831145530 74 308 9.0 14.0 0.00 0.00 0.00 97 1012.7
20260831145029 74 305 8.0 11.0 0.00 0.00 0.00 98 1012.6
20260831144529 75 308 11.0 16.0 0.00 0.00 0.00 98 1012.4
20260831144029 75 13 8.0 10.0 0.00 0.00 0.00 100 1012.4
20260831143529 74 328 9.0 16.0 0.00 0.00 0.00 100 1012.4
20260831142528 74 309 9.0 14.0 0.00 0.00 0.00 100 1012.4
20260831140027 73 322 5.0 7.0 0.00 0.00 0.00 100 1012.1
20260831135526 73 338 4.0 6.0 0.00 0.00 0.00 100 1012.1
20260831135026 73 0 0.0 0.0 0.00 0.00 0.00 100 1012.0
20260831133525 72 0 0.0 0.0 0.00 0.00 0.00 100 1011.6
20260831132524 71 0 0.0 0.0 0.00 0.00 0.00 100 1011.6
20260831123518 70 0 0.0 0.0 0.00 0.00 0.00 100 1011.1
20260831121517 69 0 0.0 0.0 0.00 0.00 0.00 100 1010.6
20260831121017 69 0 0.0 0.0 0.00 0.00 0.00 100 1010.4
20260831120516 69 0 0.0 0.0 0.00 0.00 0.00 100 1010.3
20260831114015 70 0 0.0 0.0 0.00 0.00 0.00 100 1010.1
20260831113014 70 0 0.0 0.0 0.00 0.00 0.00 100 1010.0
20260831112514 70 0 0.0 0.0 0.00 0.00 0.00 100 1010.0
20260831110513 70 0 0.0 0.0 0.00 0.00 0.00 100 1010.0
20260831110013 71 0 0.0 0.0 0.00 0.00 0.00 100 1010.0
20260831105010 70 0 0.0 0.0 0.00 0.00 0.00 100 1010.0
20260831104010 71 0 0.0 0.0 0.00 0.00 0.00 100 1010.0
20260831103509 71 0 0.0 0.0 0.00 0.00 0.00 100 1010.1
20260831103009 71 0 0.0 0.0 0.00 0.00 0.00 100 1010.0
20260831102508 71 0 0.0 0.0 0.00 0.00 0.00 100 1009.9
20260831102008 71 0 0.0 0.0 0.00 0.00 0.00 100 1009.8
20260831101508 71 0 0.0 0.0 0.00 0.00 0.00 100 1009.7
20260831101007 71 0 0.0 0.0 0.00 0.00 0.00 100 1009.7
20260831100505 71 0 0.0 0.0 0.00 0.00 0.00 100 1009.7
20260831095505 71 0 0.0 0.0 0.00 0.00 0.00 100 1009.6
20260831095004 71 0 0.0 0.0 0.00 0.00 0.00 100 1009.6
20260831094003 71 0 0.0 0.0 0.00 0.00 0.00 100 1009.5
20260831093003 72 0 0.0 0.0 0.00 0.00 0.00 99 1009.5
20260831092502 72 0 0.0 0.0 0.00 0.00 0.00 99 1008.5
20260831092002 72 0 0.0 0.0 0.00 0.00 0.00 99 1009.5
20260831091502 72 0 0.0 0.0 0.00 0.00 0.00 99 1009.7
20260831091001 72 0 0.0 0.0 0.00 0.00 0.00 98 1009.8
20260831090501 72 0 0.0 0.0 0.00 0.00 0.00 98 1009.9
20260831085501 72 0 0.0 0.0 0.00 0.00 0.00 97 1009.6
20260831085000 72 0 0.0 0.0 0.00 0.00 0.00 97 1009.6
20260831084500 72 0 0.0 0.0 0.00 0.00 0.00 97 1009.4
20260831083959 72 0 0.0 0.0 0.00 0.00 0.00 97 1009.3
20260831083459 72 0 0.0 0.0 0.00 0.00 0.00 97 1009.4
20260831082959 72 0 0.0 0.0 0.00 0.00 0.00 96 1009.4
20260831082458 72 0 0.0 0.0 0.00 0.00 0.00 96 1009.4
20260831081957 72 0 0.0 0.0 0.00 0.00 0.00 96 1009.3
20260831081457 72 0 0.0 0.0 0.00 0.00 0.00 96 1009.1
20260831080957 73 0 0.0 0.0 0.00 0.00 0.00 95 1009.3
20260831080456 73 0 0.0 0.0 0.00 0.00 0.00 95 1009.3
20260831075956 73 0 0.0 0.0 0.00 0.00 0.00 95 1009.4
20260831075456 73 0 0.0 0.0 0.00 0.00 0.00 95 1009.3
20260831074455 73 0 0.0 0.0 0.00 0.00 0.00 94 1009.4
20260831073454 73 180 3.0 7.0 0.00 0.00 0.00 94 1009.4
20260831072953 73 176 1.0 3.0 0.00 0.00 0.00 93 1009.4
20260831072453 73 174 3.0 5.0 0.00 0.00 0.00 93 1009.3
20260831071953 73 190 3.0 5.0 0.00 0.00 0.00 93 1009.4
20260831071451 73 127 2.0 7.0 0.00 0.00 0.00 93 1009.4
20260831070951 73 183 1.0 6.0 0.00 0.00 0.00 93 1009.5
20260831070451 73 298 2.0 4.0 0.00 0.00 0.00 93 1009.4
20260831065950 74 174 2.0 3.0 0.00 0.00 0.00 92 1009.4
20260831065450 74 158 2.0 3.0 0.00 0.00 0.00 92 1009.5
20260831064450 74 162 4.0 8.0 0.00 0.00 0.00 92 1009.5
20260831063449 74 143 2.0 4.0 0.00 0.00 0.00 91 1009.8
20260831062949 74 121 4.0 6.0 0.00 0.00 0.00 91 1009.8
20260831062448 74 179 3.0 3.0 0.00 0.00 0.00 91 1009.9
20260831061948 74 136 2.0 4.0 0.00 0.00 0.00 91 1010.0
20260831061448 74 162 3.0 7.0 0.00 0.00 0.00 91 1010.1
20260831060447 74 160 5.0 9.0 0.00 0.00 0.00 90 1009.9
20260831055947 74 129 3.0 8.0 0.00 0.00 0.00 90 1010.0
20260831055447 74 132 2.0 5.0 0.00 0.00 0.00 90 1010.0
20260831054445 74 104 2.0 5.0 0.00 0.00 0.00 89 1009.9
20260831053444 74 167 3.0 7.0 0.00 0.00 0.00 89 1010.1
20260831052944 75 188 4.0 6.0 0.00 0.00 0.00 88 1010.2
20260831052444 75 90 2.0 5.0 0.00 0.00 0.00 88 1010.3
20260831051944 75 149 4.0 9.0 0.00 0.00 0.00 88 1010.2
20260831051443 75 122 4.0 7.0 0.00 0.00 0.00 87 1010.3
20260831050943 75 184 2.0 6.0 0.00 0.00 0.00 87 1010.5
20260831050443 75 170 1.0 3.0 0.00 0.00 0.00 87 1010.6
20260831045942 75 155 2.0 3.0 0.00 0.00 0.00 86 1010.6
20260831045442 75 134 4.0 6.0 0.00 0.00 0.00 86 1010.9
20260831044942 75 163 3.0 6.0 0.00 0.00 0.00 85 1010.9
20260831044442 75 87 2.0 5.0 0.00 0.00 0.00 85 1011.0
20260831043941 75 145 3.0 9.0 0.00 0.00 0.00 85 1011.1
20260831043441 75 188 1.0 3.0 0.00 0.00 0.00 85 1011.1
20260831042941 75 0 0.0 0.0 0.00 0.00 0.00 84 1011.1
20260831042440 76 231 1.0 3.0 0.00 0.00 0.00 84 1011.1
20260831041940 76 0 0.0 0.0 0.00 0.00 0.00 84 1011.1
20260831041440 75 117 1.0 3.0 0.00 0.00 0.00 84 1011.0
20260831040940 76 146 5.0 7.0 0.00 0.00 0.00 84 1011.1
20260831040439 75 128 5.0 7.0 0.00 0.00 0.00 84 1010.9
20260831035939 76 146 4.0 5.0 0.00 0.00 0.00 84 1011.0
20260831035439 76 186 2.0 3.0 0.00 0.00 0.00 84 1011.1
20260831034938 76 108 3.0 8.0 0.00 0.00 0.00 84 1011.0
20260831034438 75 124 3.0 7.0 0.00 0.00 0.00 84 1010.9
20260831033938 76 0 0.0 0.0 0.00 0.00 0.00 83 1010.9
20260831033437 76 0 0.0 0.0 0.00 0.00 0.00 83 1010.9
20260831032937 76 121 4.0 9.0 0.00 0.00 0.00 83 1010.9
20260831032437 76 89 3.0 7.0 0.00 0.00 0.00 83 1010.9
20260831031937 75 0 0.0 0.0 0.00 0.00 0.00 84 1010.9
20260831031436 76 179 2.0 3.0 0.00 0.00 0.00 84 1010.9
20260831030936 75 226 3.0 7.0 0.00 0.00 0.00 85 1010.8
20260831030436 75 108 5.0 13.0 0.00 0.00 0.00 86 1010.6
20260831025936 75 0 0.0 0.0 0.00 0.00 0.00 87 1010.6
20260831025435 75 0 0.0 0.0 0.00 0.00 0.00 88 1010.5
20260831024934 76 0 0.0 0.0 0.00 0.00 0.00 88 1010.5
20260831024434 76 134 2.0 6.0 0.00 0.00 0.00 88 1010.5
20260831023934 76 0 0.0 0.0 0.00 0.00 0.00 88 1010.5
20260831023433 76 0 0.0 0.0 0.00 0.00 0.00 88 1010.6
20260831022933 76 0 0.0 0.0 0.00 0.00 0.00 88 1010.6
20260831022433 76 0 0.0 0.0 0.00 0.00 0.00 87 1010.6
20260831021932 76 0 0.0 0.0 0.00 0.00 0.00 87 1010.6
20260831021431 76 0 0.0 0.0 0.00 0.00 0.00 86 1010.5
20260831020429 77 0 0.0 0.0 0.00 0.00 0.00 85 1010.4
20260831015930 77 0 0.0 0.0 0.00 0.00 0.00 84 1010.4
20260831014928 78 193 2.0 5.0 0.00 0.00 0.00 84 1010.5
20260831014428 77 73 2.0 5.0 0.00 0.00 0.00 83 1010.4
20260831011926 78 66 3.0 7.0 0.00 0.00 0.00 81 1010.3
20260831011425 78 350 3.0 7.0 0.00 0.00 0.00 81 1010.2
20260831010925 78 46 3.0 6.0 0.00 0.00 0.00 80 1010.1
20260831005924 79 46 3.0 6.0 0.00 0.00 0.00 79 1010.2
20260831005424 79 91 1.0 4.0 0.00 0.00 0.00 79 1010.2
20260831004924 79 93 2.0 4.0 0.00 0.00 0.00 78 1010.2
20260831004424 79 174 4.0 6.0 0.00 0.00 0.00 78 1010.2
20260831003923 79 14 4.0 7.0 0.00 0.00 0.00 77 1010.2
20260831003423 80 30 3.0 9.0 0.00 0.00 0.00 77 1010.3
20260831002923 79 304 2.0 4.0 0.00 0.00 0.00 76 1010.3
20260831002422 80 56 4.0 10.0 0.00 0.00 0.00 67 1009.8
20260831001922 80 28 4.0 6.0 0.00 0.00 0.00 76 1010.3
20260831001422 81 72 4.0 8.0 0.00 0.00 0.00 76 1010.3
20260831000922 80 257 3.0 8.0 0.00 0.00 0.00 76 1010.3
20260830235921 80 49 3.0 5.0 0.00 0.00 0.00 75 1010.2
20260830235421 81 191 4.0 6.0 0.00 0.00 0.00 75 1010.1
20260830234420 80 49 3.0 6.0 0.00 0.00 0.00 74 1010.2
20260830232919 81 198 4.0 8.0 0.00 0.00 0.00 73 1010.3
20260830232419 81 198 4.0 8.0 0.00 0.00 0.00 73 1010.3
20260830231919 81 103 5.0 8.0 0.00 0.00 0.00 73 1010.2
20260830231418 81 345 0.0 4.0 0.00 0.00 0.00 72 1010.2
20260830230918 81 118 3.0 7.0 0.00 0.00 0.00 72 1010.3
20260830230417 81 346 5.0 10.0 0.00 0.00 0.00 71 1010.3
20260830225917 82 356 5.0 8.0 0.00 0.00 0.00 72 1010.3
20260830225417 82 267 2.0 5.0 0.00 0.00 0.00 71 1010.2
20260830224916 81 6 5.0 11.0 0.00 0.00 0.00 71 1010.2
20260830224416 81 203 4.0 8.0 0.00 0.00 0.00 71 1010.2
20260830223915 82 336 4.0 10.0 0.00 0.00 0.00 70 1010.2
20260830223414 82 37 3.0 5.0 0.00 0.00 0.00 70 1010.3
20260830222413 82 359 3.0 8.0 0.00 0.00 0.00 70 1010.3
20260830220912 83 333 4.0 6.0 0.00 0.00 0.00 69 1010.5
20260830220412 83 329 4.0 8.0 0.00 0.00 0.00 69 1010.5
20260830215912 82 68 5.0 10.0 0.00 0.00 0.00 69 1010.5
20260830215412 82 58 5.0 8.0 0.00 0.00 0.00 69 1010.5
20260830214911 83 38 3.0 9.0 0.00 0.00 0.00 68 1009.4
20260830214411 82 146 2.0 6.0 0.00 0.00 0.00 70 1010.8
20260830213909 81 96 5.0 9.0 0.00 0.00 0.00 71 1010.8
20260830213409 81 14 5.0 7.0 0.00 0.00 0.00 72 1010.8
20260830212909 81 311 4.0 8.0 0.00 0.00 0.00 72 1010.9
20260830212409 81 72 4.0 6.0 0.00 0.00 0.00 71 1010.9
20260830211408 81 65 4.0 7.0 0.00 0.00 0.00 72 1011.0